Location: Patterson (historical)
(35.1418°N, 90.5529°W)
Time: 17:54:28
(UTC+00:00)

STARLINK-36095 - Pass Details

Date: 11 December 2025
Orbit: 482 x 484 km, 43.0° (Epoch: 20 January)

Event Time Altitude Azimuth Distance (km) Brightness Sun altitude
Exits shadow 11:05:47 26° 185° (S) 987 3.9 -22.8°
Drops below altitude 10° 11:10:34 10° 78° (ENE) 1,658 6.0 -21.8°
Enters shadow 12:09:38 -65° 244° (WSW) 12,124 9.3 -10.3°
Maximum altitude 12:46:07 46° 339° (NNW) 652 2.7 -3.5°
